User: anonymous
Location: Bridgewater Hill Observatory
(43.5992°N, 72.6989°W)
Time: 11:19:28
(UTC-04:00)
Language:

Cosmos 1452 Rocket - Orbit

View from above orbital plane
View from above orbital plane
View from above satellite
View from above satellite

Ground track
Ground track

The orbit data is extracted from the following two-line orbital elements,

1 13992U 83031B   14235.11264727  .00000047  00000-0  25371-4 0  4868
2 13992 074.0522 094.2439 0005623 323.3896 192.4496 14.35762361641090
Epoch (UTC): 23 August 2014 02:42:12
Eccentricity: 0.0005623
inclination: 74.0522°
perigee height: 768 km
apogee height: 776 km
right ascension of ascending node: 94.2439°
argument of perigee: 323.3896°
revolutions per day: 14.35762361
mean anomaly at epoch: 192.4496°
orbit number at epoch: 64109

The dashed part of the orbit path shows where the satellite is in the earth's shadow,  

DLR